Regional Weather Roundup
Issued by NWS

Home | Current Version | Previous Version | Text Only | Print | Product List | Glossary On
Versions: 1 2 3 4 5 6 7 8 9 10 11 12 13 14 15 16 17 18 19 20 21 22 23 24 25 26 27 28 29 30 31 32 33 34 35 36 37 38 39 40 41 42 43 44 45 46 47 48 49 50
000
ASUS43 KDTX 311710
RWRMI
MICHIGAN HOURLY REGIONAL WEATHER ROUNDUP
NATIONAL WEATHER SERVICE DETROIT/PONTIAC MI
100 PM EDT FRI JUL 31 2015

NOTE: "FAIR" INDICATES FEW OR NO CLOUDS BELOW 12,000 FEET WITH NO
SIGNIFICANT WEATHER AND/OR OBSTRUCTION TO VISIBILITY.

MIZ047>049-052>055-059>063-066>070-074>076-081>083-311800-
SOUTHEAST LOWER MICHIGAN

CITY           SKY/WX    TMP DP  RH WIND       PRES   REMARKS
ADRIAN         MOSUNNY   82  58  43 NW13G22   29.95F
ALMA           MOSUNNY   82  55  38 W15G25    29.89F
ANN ARBOR      MOSUNNY   83  59  44 W13G23    29.92F
BAD AXE        MOSUNNY   80  56  44 W13G18    29.86F
DETROIT CITY   SUNNY     84  55  36 W17G29    29.90F
DETROIT        MOSUNNY   86  59  39 W13G25    29.92F
FLINT          MOSUNNY   83  59  44 W13G23    29.89F
GROSSE ILE     MOSUNNY   84  55  37 W14G23    29.91F
HILLSDALE      MOSUNNY   82  59  45 W13G20    29.97F
HOWELL         MOSUNNY   83  57  40 SW15G23   29.92F

CITY           SKY/WX    TMP DP  RH WIND       PRES   REMARKS
JACKSON        MOSUNNY   82  60  47 W13G22    29.94F
LAMBERTVILLE   SUNNY     84  59  42 W9        29.95F
LANSING        MOSUNNY   84  60  44 W21G28    29.91F
LAPEER         NOT AVBL
MASON          PTSUNNY   81  58  45 W17G28    29.92F
MONROE         MOSUNNY   84  62  46 W13G22    29.92F
MT. CLEMENS    MOSUNNY   83  58  41 W10G18    29.87F
PONTIAC        PTSUNNY   82  57  42 NW15G25   29.90F
PORT HOPE        N/A     81  60  48 W10G17    29.82F
PORT HURON     PTSUNNY   82  59  44 W9G17     29.88F
TRI CITIES     MOSUNNY   82  58  43 W16G26    29.87F
YPSILANTI      MOSUNNY   88  57  34 W18G31    29.92F
$$
MIZ043>046-050>051-056>058-064>065-071>073-077>080-311800-
SOUTHWEST LOWER MICHIGAN

CITY           SKY/WX    TMP DP  RH WIND       PRES   REMARKS
BATTLE CREEK   MOSUNNY   83  60  45 W15       29.95F
BENTON HARBOR  SUNNY     80  64  58 W14       29.98S
BIG RAPIDS     PTSUNNY   81  51  34 W16G22    29.89S
COLDWATER      MOSUNNY   82  57  41 SW16      29.96F
HOLLAND        SUNNY     80  63  55 W9        29.95F
GRAND RAPIDS   MOSUNNY   84  55  36 W16G29    29.93F
KALAMAZOO      MOSUNNY   83  62  49 W15       29.95F
MARSHALL       MOSUNNY   84  62  46 W14G21    29.94F
MUSKEGON       MOSUNNY   80  61  52 W10G20    29.92F
$$
MIZ016>042-311800-
NORTHERN LOWER MICHIGAN

CITY           SKY/WX    TMP DP  RH WIND       PRES   REMARKS
ALPENA         LGT RAIN  81  56  42 W10G18    29.79S
BEAVER ISLAND  MOSUNNY   75  58  55 W10G16    29.83S
BELLAIRE       PTSUNNY   75  56  51 NW10G17   29.85S
CADILLAC       CLOUDY    80  55  42 W14G26    29.88S
CHARLEVOIX     MOSUNNY   75  59  58 W13       29.87S
FRANKFORT      MOSUNNY   76  64  66 W13G21    29.88S
GAYLORD        PTSUNNY   77  53  43 W16G24    29.85S
GRAYLING       CLOUDY    77  54  45 W7G16     29.85S
HARBOR SPRINGS CLOUDY    71  62  71 SW9G16    29.83S
HOUGHTON LAKE  PTSUNNY   79  56  45 W14G22    29.86F
MANISTEE       MOSUNNY   73  57  56 W15G25    29.90R
OSCODA         CLOUDY    77  57  50 W7G20     29.80F
PELLSTON       MOSUNNY   78  57  48 W15G22    29.82S
TRAVERSE CITY  PTSUNNY   80  57  45 NW14      29.84S
$$
MIZ007>008-015-311800-
EASTERN UPPER MICHIGAN

CITY           SKY/WX    TMP DP  RH WIND       PRES   REMARKS
KINROSS        MOSUNNY   73  57  56 N10G20    29.80S
MACKINAC ISLAN MOSUNNY   73  59  62 SW10G18   29.80S
$$
MIZ004>006-011>014-085-311800-
CENTRAL UPPER MICHIGAN

CITY           SKY/WX    TMP DP  RH WIND       PRES   REMARKS
MANISTIQUE     MOSUNNY   79  52  38 NW16G25   29.81F
ESCANABA       MOSUNNY   79  52  38 W18G26    29.82F
MENOMINEE      MOSUNNY   77  54  44 NW12G20   29.86F
SAWYER-GWINN   MOSUNNY   75  48  38 NW18G28   29.86S
$$
MIZ001>003-009>011-084-311800-
WESTERN UPPER MICHIGAN

CITY           SKY/WX    TMP DP  RH WIND       PRES   REMARKS
IRON MOUNTAIN  MOSUNNY   77  52  41 NW17G25   29.88S
HOUGHTON       SUNNY     68  55  63 W22G28    29.87R
COPPER HARBOR    N/A     67  55  65 N13G23    29.84R
IRONWOOD       MOSUNNY   72  55  56 W14G26    29.92S
$$

ABBREVIATIONS USED IN REMARKS
   TC - TEMPERATURE IN CELSIUS
  WCI - WIND CHILL INDEX
   HX - HEAT INDEX
  VSB - VISIBILITY



USA.gov is the U.S. government's official web portal to all federal, state and local government web resources and services.